DLH4533 KLAX-EDDM

Flight info

Callsign DLH4533
Flight time N/A
Altitude 35000
Route OSHNN1 BEALE Q842 WINEN DCT TCH DCT KU84Q DCT BIL DCT RUDVI DCT 52N100W 5530N09000W/N0480F370 5830N08000W 61N070W DCT FEDDY DCT IKMAN/M081F370 DCT EMBOK DCT 64N050W 64N040W 6230N03000W/M083F390 60N020W DCT GOMUP/N0472F390 DCT GINGA DCT ERKIT N110 DOLAS DCT NAVPI DCT OTMEC DCT DODEN/N0442F330 DCT TABUM DCT BOMBI T104 HAREM/N0397F270 T104 ROKIL ROKIL1B
Aircraft A388/J-SADE2E3FGHIJ3J4J5M1RWXY/LB1D1

Departure

Time 2026-04-23 00:42
Airport Los Angeles International Airport (KLAX)

Arrival

Time N/A
Airport Munich Airport (EDDM)
Time Latitude Longitude Altitude Speed Heading
2026-04-22 23:33 33.94099 -118.41089 98 ft 0 kts 83°
2026-04-23 00:27 33.94099 -118.41090 98 ft 2 kts 83°
2026-04-23 00:27 33.94096 -118.41120 99 ft 4 kts 83°
2026-04-23 00:27 33.94092 -118.41151 97 ft 4 kts 76°
2026-04-23 00:27 33.94081 -118.41178 98 ft 4 kts 36°
2026-04-23 00:28 33.94058 -118.41189 97 ft 4 kts 358°
2026-04-23 00:28 33.94037 -118.41186 97 ft 4 kts 353°
2026-04-23 00:28 33.94012 -118.41183 101 ft 2 kts 353°
2026-04-23 00:28 33.94011 -118.41183 97 ft 2 kts 353°
2026-04-23 00:34 33.94018 -118.41183 97 ft 3 kts 353°
2026-04-23 00:34 33.94050 -118.41188 96 ft 6 kts 353°
2026-04-23 00:34 33.94098 -118.41195 99 ft 8 kts 353°
2026-04-23 00:35 33.94156 -118.41204 98 ft 9 kts 353°
2026-04-23 00:35 33.94222 -118.41213 99 ft 10 kts 353°
2026-04-23 00:35 33.94297 -118.41226 99 ft 12 kts 351°
2026-04-23 00:35 33.94382 -118.41238 99 ft 13 kts 353°
2026-04-23 00:36 33.94473 -118.41251 98 ft 13 kts 353°
2026-04-23 00:36 33.94566 -118.41265 99 ft 14 kts 353°
2026-04-23 00:36 33.94612 -118.41271 100 ft 6 kts 353°
2026-04-23 00:36 33.94654 -118.41277 100 ft 6 kts 353°
2026-04-23 00:37 33.94699 -118.41284 100 ft 7 kts 353°
2026-04-23 00:37 33.94747 -118.41291 101 ft 7 kts 353°
2026-04-23 00:37 33.94783 -118.41279 101 ft 5 kts 46°
2026-04-23 00:37 33.94797 -118.41242 101 ft 6 kts 80°
2026-04-23 00:38 33.94804 -118.41178 102 ft 9 kts 83°
2026-04-23 00:38 33.94814 -118.41087 102 ft 13 kts 83°
2026-04-23 00:38 33.94826 -118.40963 102 ft 17 kts 83°
2026-04-23 00:38 33.94841 -118.40812 99 ft 19 kts 83°
2026-04-23 00:39 33.94858 -118.40647 99 ft 19 kts 83°
2026-04-23 00:39 33.94875 -118.40492 102 ft 17 kts 83°
2026-04-23 00:39 33.94890 -118.40344 100 ft 19 kts 83°
2026-04-23 00:39 33.94905 -118.40202 102 ft 14 kts 83°
2026-04-23 00:40 33.94915 -118.40092 101 ft 15 kts 83°
2026-04-23 00:40 33.94926 -118.39985 98 ft 9 kts 81°
2026-04-23 00:40 33.94955 -118.39924 100 ft 9 kts 32°
2026-04-23 00:40 33.95014 -118.39915 99 ft 6 kts 348°
2026-04-23 00:41 33.95027 -118.39920 99 ft 3 kts 333°
2026-04-23 00:41 33.95037 -118.39934 101 ft 3 kts 288°
2026-04-23 00:41 33.95039 -118.39957 101 ft 3 kts 265°
2026-04-23 00:41 33.95030 -118.40061 99 ft 39 kts 262°
2026-04-23 00:42 33.94965 -118.40694 104 ft 108 kts 262°
2026-04-23 00:42 33.94867 -118.41794 102 ft 152 kts 262°
2026-04-23 00:42 33.94712 -118.43135 350 ft 163 kts 261°
2026-04-23 00:42 33.94574 -118.44470 889 ft 161 kts 262°
2026-04-23 00:43 33.94449 -118.45808 1443 ft 161 kts 265°
2026-04-23 00:43 33.94333 -118.47149 1937 ft 162 kts 266°
2026-04-23 00:43 33.94229 -118.48525 2280 ft 169 kts 266°
2026-04-23 00:43 33.94129 -118.49963 2641 ft 175 kts 266°
2026-04-23 00:44 33.93851 -118.51416 2904 ft 185 kts 245°
2026-04-23 00:44 33.93022 -118.52637 3174 ft 195 kts 218°
2026-04-23 00:44 33.91749 -118.53265 3468 ft 203 kts 189°
2026-04-23 00:44 33.90320 -118.53148 3733 ft 211 kts 166°
2026-04-23 00:45 33.88850 -118.52606 3984 ft 230 kts 165°
2026-04-23 00:45 33.87246 -118.52152 4369 ft 244 kts 171°
2026-04-23 00:45 33.85535 -118.51874 4925 ft 252 kts 176°
2026-04-23 00:45 33.83761 -118.51795 5530 ft 258 kts 181°
2026-04-23 00:46 33.81952 -118.51796 6165 ft 262 kts 182°
2026-04-23 00:46 33.80127 -118.51822 6838 ft 265 kts 184°
2026-04-23 00:46 33.78276 -118.51862 7495 ft 266 kts 185°
2026-04-23 00:46 33.76432 -118.51909 8229 ft 265 kts 185°
2026-04-23 00:47 33.74581 -118.51960 8898 ft 267 kts 186°
2026-04-23 00:47 33.72715 -118.52010 9530 ft 273 kts 186°
2026-04-23 00:47 33.70747 -118.51704 9756 ft 301 kts 163°
2026-04-23 00:47 33.68940 -118.50338 10226 ft 317 kts 138°
2026-04-23 00:48 33.67622 -118.48118 10417 ft 340 kts 114°
2026-04-23 00:48 33.66931 -118.45334 10577 ft 357 kts 102°
2026-04-23 00:48 33.66408 -118.42355 10768 ft 371 kts 103°
2026-04-23 00:48 33.65773 -118.39341 11237 ft 376 kts 106°
2026-04-23 00:49 33.65030 -118.36307 11729 ft 380 kts 105°
2026-04-23 00:49 33.64544 -118.33223 12262 ft 383 kts 96°
2026-04-23 00:49 33.64442 -118.30012 12722 ft 387 kts 88°
2026-04-23 00:49 33.64475 -118.26759 13198 ft 392 kts 88°
2026-04-23 00:50 33.64479 -118.23473 13695 ft 396 kts 88°
2026-04-23 00:50 33.64646 -118.20171 14127 ft 398 kts 75°
2026-04-23 00:50 33.65595 -118.17087 14575 ft 393 kts 55°
2026-04-23 00:50 33.67276 -118.14554 14995 ft 386 kts 35°
2026-04-23 00:51 33.69431 -118.12679 15433 ft 382 kts 25°
2026-04-23 00:51 33.71700 -118.11003 15880 ft 385 kts 25°
2026-04-23 00:51 33.73968 -118.09255 16319 ft 390 kts 27°
2026-04-23 00:51 33.76209 -118.07398 16728 ft 395 kts 29°
2026-04-23 00:52 33.78449 -118.05449 17151 ft 399 kts 30°
2026-04-23 00:52 33.80690 -118.03451 17550 ft 404 kts 30°
2026-04-23 00:52 33.82948 -118.01419 17983 ft 407 kts 30°
2026-04-23 00:52 33.85220 -117.99371 18432 ft 410 kts 30°
2026-04-23 00:53 33.87511 -117.97305 18819 ft 413 kts 30°
2026-04-23 00:53 33.89810 -117.95232 19228 ft 414 kts 30°
2026-04-23 00:53 33.92127 -117.93140 19557 ft 418 kts 31°
2026-04-23 00:53 33.94452 -117.91018 19938 ft 420 kts 31°
2026-04-23 00:54 33.96786 -117.88879 20297 ft 423 kts 31°
2026-04-23 00:54 33.99134 -117.86726 20651 ft 426 kts 31°
2026-04-23 00:54 34.01503 -117.84555 21009 ft 429 kts 31°
2026-04-23 00:54 34.03887 -117.82372 21352 ft 431 kts 31°
2026-04-23 00:55 34.06282 -117.80177 21705 ft 434 kts 31°
2026-04-23 00:55 34.08642 -117.77863 22004 ft 442 kts 37°
2026-04-23 00:55 34.10771 -117.75118 22142 ft 456 kts 46°
2026-04-23 00:55 34.12771 -117.72092 22232 ft 465 kts 46°
2026-04-23 00:56 34.14823 -117.69035 22326 ft 473 kts 46°
2026-04-23 00:56 34.16915 -117.65935 22533 ft 478 kts 46°
2026-04-23 00:56 34.18998 -117.62839 23332 ft 468 kts 46°
2026-04-23 00:56 34.21030 -117.59813 23975 ft 463 kts 45°
2026-04-23 00:57 34.23067 -117.56785 24250 ft 465 kts 45°
2026-04-23 00:57 34.25113 -117.53743 24502 ft 467 kts 45°
2026-04-23 00:57 34.27165 -117.50691 24811 ft 468 kts 45°
2026-04-23 00:57 34.29219 -117.47628 25081 ft 471 kts 45°
2026-04-23 00:58 34.31286 -117.44543 25388 ft 472 kts 46°
2026-04-23 00:58 34.33356 -117.41448 25720 ft 474 kts 46°
2026-04-23 00:58 34.35433 -117.38341 26027 ft 476 kts 46°
2026-04-23 00:58 34.37524 -117.35212 26334 ft 478 kts 46°
2026-04-23 00:59 34.39617 -117.32077 26662 ft 481 kts 46°
2026-04-23 00:59 34.41725 -117.28915 27000 ft 483 kts 46°
2026-04-23 00:59 34.43837 -117.25745 27346 ft 485 kts 46°
2026-04-23 00:59 34.45960 -117.22556 27718 ft 487 kts 46°
2026-04-23 01:00 34.48093 -117.19349 28055 ft 490 kts 46°
2026-04-23 01:00 34.50236 -117.16123 28371 ft 493 kts 46°
2026-04-23 01:00 34.52393 -117.12873 28705 ft 496 kts 46°
2026-04-23 01:00 34.54529 -117.09651 29054 ft 498 kts 46°
2026-04-23 01:01 34.56736 -117.06388 29266 ft 503 kts 45°
2026-04-23 01:01 34.58990 -117.03125 29642 ft 505 kts 45°
2026-04-23 01:01 34.61276 -116.99820 30055 ft 506 kts 45°
2026-04-23 01:01 34.63547 -116.96528 30292 ft 511 kts 45°
2026-04-23 01:02 34.65828 -116.93209 30632 ft 512 kts 45°
2026-04-23 01:02 34.68115 -116.89871 30900 ft 516 kts 45°
2026-04-23 01:02 34.70382 -116.86556 31217 ft 518 kts 45°
2026-04-23 01:02 34.72689 -116.83178 31483 ft 521 kts 45°
2026-04-23 01:03 34.75011 -116.79776 31773 ft 524 kts 45°
2026-04-23 01:03 34.77340 -116.76360 32079 ft 526 kts 45°
2026-04-23 01:03 34.79682 -116.72924 32354 ft 528 kts 45°
2026-04-23 01:03 34.82028 -116.69477 32632 ft 531 kts 45°
2026-04-23 01:04 34.84389 -116.66004 32920 ft 533 kts 45°
2026-04-23 01:04 34.86766 -116.62532 33198 ft 534 kts 43°
2026-04-23 01:04 34.91791 -116.55845 33741 ft 538 kts 40°
2026-04-23 01:05 34.94359 -116.52485 33915 ft 543 kts 41°
2026-04-23 01:05 34.96920 -116.49100 34198 ft 545 kts 41°
2026-04-23 01:05 34.99485 -116.45682 34432 ft 547 kts 41°
2026-04-23 01:05 35.02058 -116.42238 34665 ft 550 kts 41°
2026-04-23 01:06 35.04627 -116.38788 34933 ft 552 kts 41°
2026-04-23 01:06 35.07230 -116.35293 34981 ft 559 kts 41°
2026-04-23 01:06 35.12407 -116.28318 34972 ft 554 kts 41°
2026-04-23 01:07 35.17582 -116.21339 34978 ft 554 kts 41°
2026-04-23 01:07 35.22755 -116.14347 34975 ft 555 kts 41°
2026-04-23 01:08 35.27945 -116.07321 34975 ft 556 kts 41°
2026-04-23 01:08 35.33116 -116.00302 34977 ft 554 kts 41°
2026-04-23 01:09 35.38263 -115.93302 34961 ft 553 kts 41°
2026-04-23 01:09 35.43398 -115.86307 34954 ft 551 kts 41°
2026-04-23 01:10 35.45098 -115.83987 34950 ft 551 kts 41°